[[{"header":{"parameterUnit":"m.s-1","parameterCategory":1,"la1":30.2991,"la2":30.254,"lo1":-89.0895,"lo2":-89.0444,"dy":0.0017,"dx":0.0017,"nx":28,"ny":28,"refTime":"2024-09-29T09:00:00:Z","depth":0,"parameterNumber":2,"parameterNumberName":"U-component_of_WINDS"},"data":[0,0,0,0,0,0,0,0,0,0,0,0,0,0,0,0,0,0,0,0,0,0,0,0,0,0,0,0,0,0,0,0,0,0,0,0,0,0,0,0,0,0,0,0,0,0,0,0,0,0,0,0,0,0,0,0,0,0,1.042,1.0421,0,1.0495,1.0495,1.0496,1.0535,1.0535,1.0535,1.0535,1.0614,1.0616,1.0618,0,0,0,0,0,0,0,0,0,0,0,0,0,1.0313,1.0315,1.042,1.0421,1.0421,1.0494,1.0495,1.0496,1.0535,1.0535,1.0535,1.0535,1.0613,1.0616,1.0618,0,0,0,0,0,0,0,0,0,0,0,0,0,1.0371,1.0316,1.0419,1.0449,1.0453,1.0494,1.0495,1.0497,1.0535,1.0535,1.0535,1.0535,1.0613,1.0616,1.0619,1.0637,0,0,1.0628,1.063,0,0,0,0,0,0,0,0,1.0368,1.0375,1.0444,1.0447,1.0451,1.0505,1.0487,1.0544,1.0535,1.0504,1.0535,1.0535,1.0578,1.0584,1.0598,1.0641,1.0644,1.0629,1.0631,1.0632,1.0633,0,0,0,0,0,0,0,1.0364,1.0372,1.0449,1.0445,1.0449,1.046,1.0468,1.0498,1.054,1.0506,1.0509,1.0517,1.058,1.0595,1.06,1.0646,1.0629,1.0631,1.0633,1.0635,1.071,1.071,0,0,0,0,0,0,1.0354,1.0368,1.0447,1.0452,1.0409,1.0462,1.0471,1.0488,1.054,1.0547,1.0517,1.0519,1.059,1.0597,1.0603,1.063,1.0632,1.0635,1.0637,1.0709,1.071,1.071,0,0,0,0,0,0,1.0352,1.0361,1.0444,1.0411,1.0422,1.0464,1.0482,1.0489,1.0504,1.0548,1.0556,1.0525,1.059,1.0599,1.0629,1.0633,1.0636,1.0639,1.0709,1.071,1.071,1.0681,0,0,0,0,0,0,1.0349,1.036,1.0366,1.0411,1.0424,1.0467,1.0482,1.0491,1.0509,1.0512,1.0557,1.0564,1.0591,1.0624,1.0632,1.0637,1.0642,1.0709,1.0709,1.071,1.0682,1.0681,1.0679,0,0,0,0,0,1.0345,1.0356,1.0366,1.0376,1.0433,1.0467,1.0475,1.0504,1.0509,1.0517,1.0545,1.0563,1.0631,1.0627,1.0636,1.0642,1.0709,1.0709,1.071,1.0683,1.0681,1.0679,0,0,0,0,0,0,1.0311,1.0362,1.0374,1.04,1.0429,1.0473,1.0484,1.0501,1.053,1.0531,1.0567,1.0577,1.0604,1.0626,1.0621,1.0664,1.0672,1.0674,1.0648,1.0647,1.0645,1.064,1.0644,0,0,0,0,0,1.0307,1.033,1.0373,1.0391,1.0405,1.0442,1.0458,1.0478,1.051,1.0523,1.0553,1.0584,1.0613,1.0631,1.066,1.0685,1.0697,1.0695,1.0693,1.0692,1.0693,1.071,1.071,1.0711,1.0711,1.0711,0,0,1.0298,1.0328,1.0341,1.0385,1.041,1.0434,1.0452,1.0476,1.0495,1.0527,1.0557,1.058,1.0618,1.0646,1.066,1.0665,1.0696,1.0692,1.069,1.0693,1.071,1.071,1.071,1.0711,1.0711,1.0711,0,0,1.0294,1.0319,1.0337,1.0362,1.0399,1.0424,1.0428,1.0471,1.0487,1.0518,1.0543,1.0566,1.0614,1.064,1.066,1.0667,1.0685,1.0676,1.0668,1.0684,1.0684,1.0684,1.0688,1.0689,1.0677,1.0677,1.0677,0,1.0279,1.0315,1.0345,1.0368,1.0388,1.0417,1.0437,1.046,1.0505,1.0518,1.0523,1.0585,1.0612,1.0648,1.065,1.0664,1.0672,1.0671,1.0681,1.0682,1.0683,1.0687,1.0688,1.0676,1.0676,1.0676,1.0676,0,1.0295,1.032,1.0331,1.0373,1.0394,1.0415,1.045,1.0467,1.0486,1.051,1.0542,1.0576,1.0612,1.0622,1.0641,1.0661,1.0663,1.0674,1.0683,1.0681,1.0685,1.0687,1.0674,1.0674,1.0675,1.0675,0,0,1.0272,1.0331,1.0335,1.0355,1.0399,1.0419,1.0443,1.0478,1.0493,1.0523,1.0545,1.0585,1.0596,1.0618,1.064,1.0654,1.0659,1.0664,1.0665,1.0663,1.0685,1.0677,1.0678,1.0671,1.0672,1.0672,1.0683,0,1.0275,1.0318,1.0346,1.0378,1.0403,1.0431,1.0452,1.0482,1.0506,1.0531,1.0557,1.0586,1.0597,1.0611,1.0626,1.0655,1.0665,1.0655,1.0693,1.0694,1.0684,1.0681,1.0672,1.068,1.0684,1.0685,1.0685,0,1.0285,1.0314,1.0348,1.039,1.0402,1.042,1.0455,1.0478,1.0513,1.053,1.0555,1.0577,1.0605,1.0611,1.065,1.0643,1.0661,1.0677,1.0679,1.0684,1.069,1.0687,1.0684,1.0685,1.0688,1.0688,1.0687,0,1.0266,1.0314,1.0341,1.0357,1.0407,1.0419,1.0441,1.0476,1.0495,1.0526,1.054,1.0574,1.0593,1.0619,1.0651,1.0652,1.0688,1.0696,1.0703,1.0703,1.071,1.0709,1.071,1.072,1.072,1.072,1.072,0,1.0267,1.0287,1.0333,1.035,1.0374,1.0407,1.043,1.0454,1.0485,1.0508,1.0535,1.0556,1.0596,1.0623,1.0648,1.0677,1.0685,1.0701,1.0707,1.0699,1.0697,1.0711,1.0712,1.072,1.072,1.072,1.072,0,1.0251,1.0282,1.0314,1.0358,1.037,1.0386,1.0424,1.0443,1.0468,1.0497,1.0505,1.0545,1.0578,1.0612,1.0656,1.0673,1.0703,1.0711,1.069,1.0694,1.07,1.0699,1.0711,1.0714,1.072,1.072,1.072,0,1.025,1.0266,1.0312,1.0329,1.035,1.0377,1.0397,1.043,1.0451,1.0492,1.0506,1.054,1.057,1.0621,1.0655,1.0689,1.07,1.0701,1.0705,1.0696,1.0701,1.07,1.0702,1.07,1.07,1.07,1.0699,0,1.0245,1.026,1.0288,1.0321,1.0345,1.0373,1.0402,1.0415,1.0454,1.0476,1.0509,1.0532,1.0577,1.0612,1.065,1.0674,1.0694,1.0698,1.0702,1.0693,1.0681,1.0689,1.0688,1.0698,1.0698,1.0698,1.0698,1.0698,1.0237,1.0254,1.0289,1.0319,1.0345,1.0372,1.0391,1.0419,1.0447,1.0486,1.0504,1.0538,1.0574,1.0628,1.0651,1.0679,1.0685,1.069,1.0691,1.0692,1.0691,1.0676,1.0686,1.0686,1.0687,1.0687,1.0687,0,1.0235,1.0259,1.0287,1.0327,1.0351,1.0367,1.04,1.042,1.0449,1.048,1.0509,1.0548,1.0582,1.0618,1.0655,1.067,1.068,1.0679,1.0678,1.0684,1.0683,1.0677,1.067,1.067,1.067,1.067,1.067,1.067,1.0237,1.0266,1.0285,1.0327,1.0351,1.0384,1.0402,1.0428,1.0453,1.0495,1.0523,1.0546,1.0581,1.062,1.0652,1.0662,1.0675,1.0671,1.0684,1.0682,1.0684,1.0685,1.0679,1.0673,1.0673,1.0682,1.0682,1.0682]},{"header":{"parameterUnit":"m.s-1","parameterCategory":1,"la1":30.2991,"la2":30.254,"lo1":-89.0895,"lo2":-89.0444,"dy":0.0017,"dx":0.0017,"nx":28,"ny":28,"refTime":"2024-09-29T09:00:00:Z","depth":0,"parameterNumber":3,"parameterNumberName":"V-component_of_WINDS"},"data":[0,0,0,0,0,0,0,0,0,0,0,0,0,0,0,0,0,0,0,0,0,0,0,0,0,0,0,0,0,0,0,0,0,0,0,0,0,0,0,0,0,0,0,0,0,0,0,0,0,0,0,0,0,0,0,0,0,0,1.5113,1.5113,0,1.5121,1.5121,1.5121,1.5149,1.5149,1.515,1.5151,1.5158,1.5158,1.5157,0,0,0,0,0,0,0,0,0,0,0,0,0,1.512,1.512,1.5113,1.5113,1.5113,1.5121,1.5121,1.5121,1.5149,1.5149,1.515,1.5151,1.5158,1.5158,1.5157,0,0,0,0,0,0,0,0,0,0,0,0,0,1.5121,1.5119,1.5113,1.5128,1.5129,1.5121,1.5121,1.5121,1.5149,1.5149,1.515,1.5151,1.5158,1.5158,1.5157,1.5135,0,0,1.5155,1.5155,0,0,0,0,0,0,0,0,1.5121,1.5121,1.5126,1.5127,1.5128,1.5135,1.5126,1.5126,1.5148,1.5141,1.5151,1.5152,1.5149,1.515,1.5149,1.5135,1.5136,1.5155,1.5155,1.5155,1.5155,0,0,0,0,0,0,0,1.5121,1.5121,1.5116,1.5126,1.5127,1.5134,1.5135,1.5126,1.514,1.5142,1.5144,1.5145,1.515,1.515,1.515,1.5136,1.5155,1.5155,1.5155,1.5154,1.5103,1.5102,0,0,0,0,0,0,1.5119,1.5121,1.5116,1.5116,1.5127,1.5133,1.5134,1.5132,1.514,1.5142,1.5144,1.5146,1.515,1.515,1.515,1.5124,1.5155,1.5154,1.5154,1.5104,1.5103,1.5102,0,0,0,0,0,0,1.5119,1.5118,1.5116,1.5119,1.5119,1.5132,1.5129,1.5132,1.5131,1.5142,1.5144,1.514,1.5151,1.5151,1.5138,1.5124,1.5154,1.5153,1.5105,1.5104,1.5102,1.5071,0,0,0,0,0,0,1.5119,1.5118,1.511,1.5119,1.5119,1.5104,1.5128,1.5131,1.513,1.5133,1.5139,1.5141,1.5152,1.5139,1.5138,1.5124,1.5153,1.5107,1.5105,1.5103,1.5074,1.5069,1.5065,0,0,0,0,0,1.5119,1.5101,1.511,1.5109,1.5109,1.5103,1.5103,1.5116,1.5129,1.512,1.5127,1.5141,1.5126,1.5138,1.5136,1.5122,1.5108,1.5105,1.5103,1.5076,1.507,1.5065,0,0,0,0,0,0,1.509,1.5102,1.5112,1.5096,1.5099,1.5108,1.5098,1.511,1.5108,1.5111,1.5127,1.5128,1.5113,1.5117,1.5129,1.5101,1.5119,1.5117,1.5099,1.5093,1.5089,1.5088,1.5153,0,0,0,0,0,1.5082,1.5077,1.5088,1.5072,1.5073,1.5085,1.5083,1.5093,1.5096,1.5097,1.5103,1.5105,1.5101,1.5097,1.5094,1.5075,1.5076,1.5064,1.506,1.5056,1.5053,1.5042,1.5037,1.5094,1.5094,1.5095,0,0,1.5065,1.5071,1.5067,1.5067,1.507,1.5063,1.5086,1.5078,1.5073,1.5096,1.5084,1.5088,1.5092,1.5075,1.5068,1.5078,1.5038,1.5053,1.505,1.5049,1.5039,1.5034,1.5029,1.5093,1.5093,1.5093,0,0,1.503,1.5035,1.5022,1.5025,1.5029,1.5037,1.5034,1.5042,1.5045,1.5034,1.505,1.5045,1.5037,1.5039,1.5038,1.5004,1.5016,1.5002,1.4979,1.4968,1.4963,1.4959,1.4945,1.4941,1.5,1.5,1.5,0,1.5008,1.4999,1.5014,1.5005,1.5004,1.5024,1.5011,1.5013,1.5016,1.5014,1.5025,1.5016,1.502,1.5003,1.4995,1.4994,1.499,1.5001,1.4963,1.4959,1.4955,1.4942,1.4937,1.4998,1.4998,1.4998,1.4998,0,1.4971,1.4965,1.4954,1.4956,1.4954,1.4943,1.4956,1.4952,1.4962,1.4969,1.4957,1.4962,1.496,1.4957,1.4966,1.4941,1.4947,1.496,1.4979,1.4948,1.4936,1.4931,1.4995,1.4996,1.4997,1.4997,0,0,1.4918,1.4928,1.4924,1.4925,1.4931,1.4926,1.4915,1.4913,1.4909,1.4911,1.4902,1.4895,1.4907,1.4907,1.4917,1.4907,1.4877,1.4921,1.4921,1.4912,1.4849,1.4838,1.4832,1.4886,1.4885,1.4885,1.4848,0,1.4883,1.4866,1.4879,1.486,1.4853,1.4872,1.4863,1.4866,1.4872,1.4867,1.4874,1.4868,1.4885,1.4885,1.4876,1.4883,1.4865,1.4886,1.4877,1.4876,1.4874,1.4826,1.4814,1.4779,1.4844,1.4843,1.4842,0,1.4841,1.484,1.482,1.4827,1.4824,1.4816,1.4815,1.481,1.4813,1.4818,1.4818,1.483,1.482,1.4839,1.4824,1.4838,1.4835,1.4838,1.4837,1.4835,1.4856,1.4821,1.4769,1.4763,1.4835,1.4836,1.4836,0,1.4802,1.4796,1.4783,1.4783,1.4791,1.4785,1.4788,1.4792,1.4789,1.4788,1.4787,1.4784,1.4783,1.478,1.4792,1.4805,1.4775,1.4795,1.4778,1.4777,1.4769,1.4769,1.4714,1.477,1.477,1.477,1.477,0,1.4761,1.4748,1.4765,1.4757,1.4742,1.4757,1.4742,1.4747,1.475,1.4743,1.476,1.4752,1.4768,1.4762,1.4771,1.4757,1.4756,1.4759,1.4761,1.4757,1.4756,1.4754,1.4756,1.4769,1.4769,1.4769,1.477,0,1.4715,1.4726,1.4713,1.4721,1.4723,1.4712,1.4719,1.4711,1.4719,1.4709,1.4708,1.4719,1.4713,1.4724,1.4719,1.4725,1.4705,1.4712,1.4704,1.4705,1.4686,1.4687,1.4626,1.4618,1.4681,1.468,1.468,0,1.4687,1.4677,1.4685,1.4681,1.4683,1.4677,1.4675,1.4689,1.4686,1.4689,1.468,1.4676,1.4672,1.4661,1.4669,1.4665,1.4671,1.465,1.467,1.4666,1.4669,1.4669,1.4667,1.4645,1.4644,1.4644,1.4643,0,1.4637,1.4643,1.4639,1.4637,1.4634,1.4633,1.4633,1.4629,1.4645,1.464,1.4634,1.4631,1.4627,1.4621,1.4619,1.4622,1.4634,1.4637,1.4632,1.4627,1.4622,1.4623,1.469,1.4638,1.4638,1.4639,1.4639,1.4639,1.4598,1.459,1.4593,1.4588,1.459,1.459,1.4583,1.459,1.4585,1.4582,1.4591,1.4582,1.4585,1.4584,1.4585,1.4578,1.4587,1.4581,1.4579,1.4577,1.4573,1.4624,1.4578,1.4578,1.4578,1.4578,1.4579,0,1.4547,1.4551,1.4546,1.4546,1.4542,1.4555,1.4556,1.4551,1.4544,1.4545,1.4542,1.4534,1.4529,1.4536,1.4532,1.4525,1.4531,1.4523,1.4523,1.4523,1.4566,1.457,1.4519,1.4519,1.4519,1.4519,1.4519,1.4519,1.452,1.4506,1.4513,1.45,1.4503,1.4495,1.4494,1.4494,1.4495,1.4486,1.4482,1.4487,1.449,1.4487,1.4482,1.4484,1.4481,1.4472,1.4476,1.4515,1.4521,1.4526,1.453,1.4471,1.4471,1.4433,1.4433,1.4433]}]]